This demonstration page uses our WeatherBlox Daily Observations layout. Learn more.

Left ArrowRight Arrow

40.97296, -117.73568

Hourly Observations for March 7, 2016

Temp ( °F °C ) Dew Point ( °F °C ) Humidity (%) Winds ( mph kmh ) Pressure ( in mb ) Visibility ( mi km ) Precip ( " mm )
12:56 am 00:56 Partly Cloudy 36 2.2 23 -5 59 59 SW 5 7 29.71 1006 10 16 0.00 0.00
1:56 am 01:56 Mostly Cloudy 37 2.8 23 -5 57 57 SSW 6 9 29.70 1006 10 16 0.00 0.00
2:56 am 02:56 Cloudy 36 2.2 24 -4.4 62 62 Calm 29.68 1005 10 16 0.00 0.00
3:56 am 03:56 Cloudy with Light Snow 37 2.8 27 -2.8 67 67 ENE 7 11 29.68 1005 7 11 0.00 0.03
4:56 am 04:56 Cloudy 36 2.2 30 -1.1 79 79 NNE 8 13 29.66 1004 10 16 0.00 0.03
5:56 am 05:56 Cloudy 37 2.8 28 -2.2 70 70 NNE 8 13 29.70 1006 10 16 0.00 0.00
6:56 am 06:56 Cloudy 36 2.2 29 -1.7 76 76 NE 12 19 29.72 1007 10 16 0.00 0.00
7:56 am 07:56 Cloudy 36 2.2 30 -1.1 79 79 NE 15 24 29.75 1007 10 16 0.00 0.00
8:56 am 08:56 Cloudy 37 2.8 31 -0.6 79 79 NE 13 20 29.75 1007 10 16 0.00 0.00
9:56 am 09:56 Cloudy with Light Rain 37 2.8 33 0.6 86 86 NNE 14 22 29.76 1008 10 16 0.00 0.03
10:56 am 10:56 Cloudy with Light Rain 37 2.8 34 1.1 89 89 NNE 16 26 29.76 1008 7 11 0.00 0.03
11:56 am 11:56 Cloudy with Light Rain 37 2.8 35 1.7 93 93 N 9 15 29.76 1008 8 13 0.01 0.25
12:35 pm 12:35 Cloudy with Light Rain 37 2.8 34 1.1 89 89 NNE 13 20 29.80 1009 10 16 0.01 0.25
12:56 pm 12:56 Cloudy with Light Rain 37 2.8 34 1.1 89 89 NNE 13 20 29.75 1008 10 16 0.01 0.25
1:56 pm 13:56 Cloudy 38 3.3 35 1.7 89 89 NE 12 19 29.75 1008 10 16 0.00 0.03
2:56 pm 14:56 Cloudy 41 5 35 1.7 79 79 NE 13 20 29.75 1008 10 16 0.00 0.00
3:32 pm 15:32 Cloudy 39 4 34 1 81 81 NNE 12 19 29.80 1009 10 16 0.00 0.00
3:56 pm 15:56 Mostly Cloudy 41 5 34 1.1 76 76 NE 9 15 29.76 1008 10 16 0.00 0.00
4:19 pm 16:19 Cloudy 41 5 34 1.1 76 76 NNE 8 13 29.80 1009 10 16 0.00 0.00
4:56 pm 16:56 Cloudy 40 4.4 33 0.6 77 77 NE 8 13 29.78 1009 10 16 0.00 0.00
5:56 pm 17:56 Mostly Clear 38 3.3 32 0 79 79 NNE 7 11 29.81 1010 10 16 0.00 0.00
6:56 pm 18:56 Clear 36 2.2 31 -0.6 82 82 N 3 6 29.85 1011 10 16 0.00 0.00
7:44 pm 19:44 Mostly Cloudy 30 -1 28 -2 93 93 W 5 7 29.97 1015 10 16 0.00 0.00
7:56 pm 19:56 Mostly Cloudy 32 0 30 -1.1 92 92 W 6 9 29.88 1012 10 16 0.00 0.00
8:05 pm 20:05 Mostly Cloudy 31 -0.6 29 -1.7 92 92 W 7 11 29.94 1014 10 16 0.00 0.00
8:56 pm 20:56 Mostly Clear 30 -1.1 28 -2.2 92 92 W 7 11 29.90 1012 10 16 0.00 0.00
9:31 pm 21:31 Mostly Cloudy 30 -1.1 29 -1.7 96 96 W 7 11 30.00 1016 10 16 0.00 0.00
9:56 pm 21:56 Cloudy 34 1.1 32 0 92 92 W 5 7 29.91 1013 10 16 0.00 0.00
10:19 pm 22:19 Mostly Cloudy 34 1.1 32 0 92 92 W 5 7 29.97 1015 10 16 0.00 0.00
10:35 pm 22:35 Partly Cloudy 33 0.6 31 -0.6 92 92 W 8 13 29.97 1015 10 16 0.00 0.00
10:56 pm 22:56 Clear 33 0.6 31 -0.6 92 92 NW 7 11 29.92 1013 10 16 0.00 0.00
11:56 pm 23:56 Mostly Clear 31 -0.6 29 -1.7 92 92 WNW 5 7 29.94 1014 10 16 0.00 0.00

Powered by AerisWeather